When you browse on this site, cookies collect data to enhance your experience and personalize the content and advertising you see.
Visit our Privacy Policy to learn more. By continuing to use the site, you agree to this use of cookies and data.
  • In United Kingdom
  • List of Countries
  • For 7 days
  • Water Temperature
  • Satellite Maps
  • Weather Map
  • Weather Widgets
  • user-avatar
    Login

    Hourly Weather Leeds

    Today, 21 February, Thursday

    Time Temperature Precipitation Wind Pressure Humidity
    00:00 +10°C° 0 mm 4 mps 758 mmHg 87%
    01:00 +10°C° 0 mm 4 mps 758 mmHg 87%
    02:00 +9°C° 0 mm 5 mps 758 mmHg 87%
    03:00 +9°C° 0 mm 5 mps 758 mmHg 87%
    04:00 +9°C° 0 mm 5 mps 759 mmHg 87%
    05:00 +10°C° 0 mm 5 mps 759 mmHg 87%
    06:00 +10°C° 0 mm 4 mps 759 mmHg 88%
    07:00 +11°C° 0 mm 4 mps 760 mmHg 88%
    08:00 +10°C° 0 mm 5 mps 760 mmHg 87%
    09:00 +12°C° 0 mm 5 mps 761 mmHg 86%
    10:00 +13°C° 0 mm 5 mps 761 mmHg 82%
    11:00 +14°C° 0 mm 5 mps 762 mmHg 77%
    12:00 +14°C° 0 mm 4 mps 763 mmHg 74%
    13:00 +14°C° 0 mm 4 mps 763 mmHg 73%
    14:00 +16°C° 0 mm 3 mps 763 mmHg 72%
    15:00 +16°C° 0 mm 3 mps 763 mmHg 71%
    16:00 +14°C° 0 mm 3 mps 763 mmHg 76%
    17:00 +14°C° 0 mm 2 mps 764 mmHg 81%
    18:00 +13°C° 0 mm 2 mps 764 mmHg 86%
    19:00 +12°C° 0 mm 2 mps 765 mmHg 87%
    20:00 +12°C° 0 mm 2 mps 765 mmHg 88%
    21:00 +10°C° 0 mm 2 mps 766 mmHg 89%
    22:00 +10°C° 0 mm 2 mps 766 mmHg 89%
    23:00 +10°C° 0 mm 2 mps 767 mmHg 89%

    Tomorrow, 22 February, Friday

    Time Temperature Precipitation Wind Pressure Humidity
    00:00 +9°C° 0 mm 2 mps 767 mmHg 89%
    01:00 +9°C° 0 mm 2 mps 767 mmHg 87%
    02:00 +9°C° 0 mm 2 mps 767 mmHg 86%
    03:00 +8°C° 0 mm 2 mps 767 mmHg 84%
    04:00 +8°C° 0 mm 2 mps 768 mmHg 84%
    05:00 +8°C° 0 mm 2 mps 768 mmHg 83%
    06:00 +8°C° 0 mm 2 mps 768 mmHg 83%
    07:00 +8°C° 0 mm 2 mps 769 mmHg 80%
    08:00 +9°C° 0 mm 2 mps 769 mmHg 77%
    09:00 +9°C° 0 mm 2 mps 769 mmHg 74%
    10:00 +12°C° 0 mm 2 mps 770 mmHg 68%
    11:00 +12°C° 0 mm 3 mps 770 mmHg 63%
    12:00 +14°C° 0 mm 3 mps 770 mmHg 57%
    13:00 +14°C° 0 mm 3 mps 770 mmHg 57%
    14:00 +14°C° 0 mm 4 mps 770 mmHg 56%
    15:00 +15°C° 0 mm 4 mps 769 mmHg 56%
    16:00 +14°C° 0 mm 4 mps 769 mmHg 62%
    17:00 +12°C° 0 mm 4 mps 769 mmHg 69%
    18:00 +11°C° 0 mm 4 mps 769 mmHg 75%
    19:00 +11°C° 0 mm 4 mps 769 mmHg 76%
    20:00 +10°C° 0 mm 4 mps 769 mmHg 77%
    21:00 +10°C° 0 mm 4 mps 769 mmHg 79%
    22:00 +10°C° 0 mm 4 mps 769 mmHg 78%
    23:00 +8°C° 0 mm 4 mps 769 mmHg 78%

    Day after tomorrow, 23 February, Saturday

    Time Temperature Precipitation Wind Pressure Humidity
    00:00 +8°C° 0 mm 4 mps 769 mmHg 77%
    01:00 +8°C° 0 mm 4 mps 769 mmHg 79%
    02:00 +8°C° 0 mm 4 mps 769 mmHg 81%
    03:00 +8°C° 0 mm 3 mps 769 mmHg 82%
    04:00 +8°C° 0 mm 3 mps 769 mmHg 85%
    05:00 +8°C° 0 mm 3 mps 769 mmHg 88%
    06:00 +8°C° 0 mm 3 mps 768 mmHg 91%
    07:00 +8°C° 0 mm 3 mps 768 mmHg 90%
    08:00 +9°C° 0 mm 3 mps 768 mmHg 88%
    09:00 +10°C° 0 mm 4 mps 768 mmHg 87%
    10:00 +11°C° 0 mm 4 mps 768 mmHg 82%
    11:00 +12°C° 0 mm 4 mps 768 mmHg 77%
    12:00 +14°C° 0 mm 4 mps 768 mmHg 72%
    13:00 +14°C° 0 mm 4 mps 768 mmHg 71%
    14:00 +15°C° 0 mm 4 mps 768 mmHg 69%
    15:00 +15°C° 0 mm 4 mps 768 mmHg 68%
    16:00 +14°C° 0 mm 3 mps 768 mmHg 73%
    17:00 +13°C° 0 mm 3 mps 768 mmHg 79%
    18:00 +13°C° 0 mm 2 mps 769 mmHg 84%
    19:00 +12°C° 0 mm 2 mps 769 mmHg 86%
    20:00 +12°C° 0 mm 2 mps 769 mmHg 87%
    21:00 +10°C° 0 mm 2 mps 770 mmHg 89%
    22:00 +10°C° 0 mm 2 mps 770 mmHg 89%
    23:00 +9°C° 0 mm 2 mps 770 mmHg 90%

    24 February, Sunday

    Time Temperature Precipitation Wind Pressure Humidity
    00:00 +10°C° 0 mm 1 mps 770 mmHg 90%
    01:00 +10°C° 0 mm 1 mps 770 mmHg 90%
    02:00 +9°C° 0 mm 1 mps 770 mmHg 90%
    03:00 +8°C° 0 mm 0 mps 770 mmHg 90%
    04:00 +9°C° 0 mm 1 mps 770 mmHg 90%
    05:00 +9°C° 0 mm 1 mps 770 mmHg 90%
    06:00 +9°C° 0 mm 1 mps 770 mmHg 89%
    07:00 +9°C° 0 mm 1 mps 770 mmHg 86%
    08:00 +8°C° 0 mm 2 mps 770 mmHg 83%
    09:00 +9°C° 0 mm 2 mps 771 mmHg 80%
    10:00 +10°C° 0 mm 2 mps 771 mmHg 74%
    11:00 +12°C° 0 mm 2 mps 771 mmHg 68%
    12:00 +12°C° 0 mm 3 mps 771 mmHg 62%
    13:00 +13°C° 0 mm 3 mps 770 mmHg 61%
    14:00 +14°C° 0 mm 2 mps 770 mmHg 59%
    15:00 +15°C° 0 mm 2 mps 770 mmHg 58%
    16:00 +14°C° 0 mm 2 mps 770 mmHg 64%
    17:00 +13°C° 0 mm 2 mps 770 mmHg 70%
    18:00 +12°C° 0 mm 2 mps 770 mmHg 75%
    19:00 +10°C° 0 mm 2 mps 771 mmHg 78%
    20:00 +10°C° 0 mm 2 mps 771 mmHg 81%
    21:00 +9°C° 0 mm 2 mps 772 mmHg 84%
    22:00 +10°C° 0 mm 1 mps 772 mmHg 85%
    23:00 +10°C° 0 mm 1 mps 772 mmHg 86%

    25 February, Monday

    Time Temperature Precipitation Wind Pressure Humidity
    00:00 +10°C° 0 mm 1 mps 772 mmHg 87%
    01:00 +9°C° 0 mm 1 mps 772 mmHg 88%
    02:00 +9°C° 0 mm 1 mps 772 mmHg 89%
    03:00 +9°C° 0 mm 1 mps 772 mmHg 89%
    04:00 +9°C° 0 mm 1 mps 772 mmHg 90%
    05:00 +9°C° 0 mm 1 mps 772 mmHg 90%
    06:00 +9°C° 0 mm 1 mps 772 mmHg 90%
    07:00 +9°C° 0 mm 1 mps 772 mmHg 88%
    08:00 +10°C° 0 mm 1 mps 773 mmHg 86%
    09:00 +11°C° 0 mm 1 mps 773 mmHg 84%
    10:00 +12°C° 0 mm 1 mps 773 mmHg 78%
    11:00 +14°C° 0 mm 1 mps 773 mmHg 71%
    12:00 +16°C° 0 mm 1 mps 773 mmHg 65%
    13:00 +16°C° 0 mm 1 mps 773 mmHg 62%
    14:00 +18°C° 0 mm 1 mps 772 mmHg 60%
    15:00 +18°C° 0 mm 1 mps 772 mmHg 58%
    16:00 +16°C° 0 mm 1 mps 772 mmHg 64%
    17:00 +14°C° 0 mm 1 mps 772 mmHg 70%
    18:00 +13°C° 0 mm 1 mps 772 mmHg 76%
    19:00 +12°C° 0 mm 1 mps 772 mmHg 79%
    20:00 +12°C° 0 mm 1 mps 772 mmHg 81%
    21:00 +11°C° 0 mm 1 mps 772 mmHg 84%
    22:00 +11°C° 0 mm 1 mps 772 mmHg 84%
    23:00 +10°C° 0 mm 1 mps 772 mmHg 83%

    26 February, Tuesday

    Time Temperature Precipitation Wind Pressure Humidity
    00:00 +10°C° 0 mm 1 mps 772 mmHg 83%
    01:00 +9°C° 0 mm 1 mps 771 mmHg 79%
    02:00 +9°C° 0 mm 1 mps 771 mmHg 76%
    03:00 +8°C° 0 mm 1 mps 771 mmHg 73%
    04:00 +8°C° 0 mm 1 mps 771 mmHg 71%
    05:00 +8°C° 0 mm 1 mps 770 mmHg 68%
    06:00 +8°C° 0 mm 1 mps 770 mmHg 66%
    07:00 +8°C° 0 mm 1 mps 770 mmHg 64%
    08:00 +9°C° 0 mm 1 mps 770 mmHg 63%
    09:00 +10°C° 0 mm 1 mps 770 mmHg 61%
    10:00 +12°C° 0 mm 2 mps 770 mmHg 58%
    11:00 +13°C° 0 mm 2 mps 769 mmHg 56%
    12:00 +15°C° 0 mm 2 mps 769 mmHg 53%
    13:00 +14°C° 0 mm 3 mps 769 mmHg 54%
    14:00 +16°C° 0 mm 3 mps 768 mmHg 55%
    15:00 +16°C° 0 mm 3 mps 768 mmHg 55%
    16:00 +14°C° 0 mm 3 mps 768 mmHg 62%
    17:00 +12°C° 0 mm 3 mps 767 mmHg 68%
    18:00 +12°C° 0 mm 2 mps 767 mmHg 74%
    19:00 +12°C° 0 mm 2 mps 767 mmHg 76%
    20:00 +10°C° 0 mm 2 mps 767 mmHg 78%
    21:00 +9°C° 0 mm 2 mps 767 mmHg 80%
    22:00 +9°C° 0 mm 2 mps 767 mmHg 81%
    23:00 +8°C° 0 mm 2 mps 767 mmHg 83%
    Show more